User: anonymous   Login
Location: Unspecified
(0.0000°N, 0.0000°E)
Time: 19:56:19
(UTC+00:00)
Language:

OBJECT D - Orbit

View from above orbital plane
View from above orbital plane
View from above satellite
View from above satellite

Ground track
Ground track

The orbit data is extracted from the following two-line orbital elements,

1 43616U 18070D   18351.45520905  .00003087  00000-0  85642-4 0  9991
2 43616  93.0333 287.8729 0015270 301.2426  58.7330 15.36877664 14261
Epoch (UTC): 17 December 2018 10:55:30
Eccentricity: 0.0015270
inclination: 93.0333°
perigee height: 445 km
apogee height: 466 km
right ascension of ascending node: 287.8729°
argument of perigee: 301.2426°
revolutions per day: 15.36877664
mean anomaly at epoch: 58.7330°
orbit number at epoch: 1426

The dashed part of the orbit path shows where the satellite is in the earth's shadow,  

DLR